This demonstration page uses our WeatherBlox Daily Observations layout. Learn more.

38.88101, -77.10428

Hourly Observations for June 24, 2015

Temp ( °F °C ) Dew Point ( °F °C ) Humidity (%) Winds ( mph kmh ) Pressure ( in mb ) Visibility ( mi km ) Precip ( " mm )
12:52 am 00:52 Mostly Cloudy 77 25 71 21.7 82 82 W 6 9 29.96 1014 10 16.0934 0 0
1:52 am 01:52 Mostly Cloudy 77 25 70 21.1 79 79 Calm 29.95 1014 10 16.0934 0 0
2:52 am 02:52 Mostly Cloudy 77 25 67 19.4 71 71 NW 10 17 29.97 1015 10 16.0934 0 0
3:52 am 03:52 Partly Cloudy 72 22.2 65 18.3 79 79 NW 8 13 30 1016 10 16.0934 0 0
4:52 am 04:52 Mostly Cloudy 72 22.2 63 17.2 73 73 NW 13 20 30.02 1017 10 16.0934 0 0
5:52 am 05:52 Mostly Cloudy 70 21.1 62 16.7 76 76 NW 12 19 30.03 1017 10 16.0934 0 0
6:52 am 06:52 Mostly Cloudy 71 21.7 63 17.2 76 76 NNW 7 11 30.06 1018 10 16.0934 0 0
7:52 am 07:52 Mostly Cloudy 73 22.8 62 16.7 69 69 NW 10 17 30.08 1019 10 16.0934 0 0
8:52 am 08:52 Mostly Cloudy 75 23.9 62 16.7 64 64 NNW 8 13 30.09 1019 10 16.0934 0 0
9:52 am 09:52 Cloudy 76 24.4 61 16.1 60 60 NNW 5 7 30.09 1019 10 16.0934 0 0
10:52 am 10:52 Cloudy 79 26.1 61 16.1 54 54 VRB 7 11 30.09 1019 10 16.0934 0 0
11:52 am 11:52 Mostly Cloudy 80 26.7 63 17.2 56 56 N 6 9 30.09 1019 10 16.0934 0 0
12:52 pm 12:52 Mostly Cloudy 82 27.8 61 16.1 49 49 N 8 13 30.08 1019 10 16.0934 0 0
1:52 pm 13:52 Mostly Cloudy 82 27.8 60 15.6 47 47 NNW 9 15 30.06 1018 10 16.0934 0 0
2:52 pm 14:52 Mostly Cloudy 85 29.4 58 14.4 40 40 NNW 16 26 30.06 1018 10 16.0934 0 0
3:52 pm 15:52 Mostly Cloudy 85 29.4 60 15.6 43 43 NW 13 20 30.06 1018 10 16.0934 0 0
4:52 pm 16:52 Mostly Cloudy 85 29.4 57 13.9 39 39 NNW 14 22 30.06 1018 10 16.0934 0 0
5:52 pm 17:52 Mostly Cloudy 85 29.4 57 13.9 39 39 NNW 10 17 30.06 1018 10 16.0934 0 0
6:52 pm 18:52 Partly Cloudy 84 28.9 57 13.9 40 40 NNW 14 22 30.05 1018 10 16.0934 0 0
7:52 pm 19:52 Partly Cloudy 83 28.3 57 13.9 41 41 NNW 8 13 30.04 1017 10 16.0934 0 0
8:52 pm 20:52 Partly Cloudy 83 28.3 55 12.8 38 38 N 5 7 30.05 1018 10 16.0934 0 0
9:52 pm 21:52 Partly Cloudy 80 26.7 59 15 49 49 N 6 9 30.06 1018 10 16.0934 0 0
10:52 pm 22:52 Mostly Cloudy 78 25.6 60 15.6 54 54 N 6 9 30.09 1019 10 16.0934 0 0
11:52 pm 23:52 Mostly Cloudy 78 25.6 59 15 52 52 NNW 5 7 30.09 1019 10 16.0934 0 0

Powered by AerisWeather